{"data":{"norad_id":30798,"epoch":"2026-09-19T09:55:02.488800Z","epoch_age_seconds":108240,"freshness":"FRESH","line1":"1 30798U 07004E   26262.41322325 -.00000522  00000+0  00000+0 0  9996","line2":"2 30798   7.1241  90.9892 8417278 234.0701  25.4178  0.87839719 66758","mean_motion":0.87839719,"eccentricity":0.8417278,"inclination_deg":7.1241,"raan_deg":90.9892,"arg_perigee_deg":234.0701,"mean_anomaly_deg":25.4178,"bstar":0,"rev_number":6675,"period_min":1639.3495065712,"perigee_km":911.05162210222,"apogee_km":78442.19989283,"semimajor_km":46054.762757466,"source":"CELESTRAK","updated_at":"2026-09-20T09:00:13.650260Z"}}